Tracking 30510 objects as of 22-May-2025
HD Live streaming from Space Station
objects crossing your sky now

COSMOS 2573

Track COSMOS 2573 now!
10-day predictions


NORAD ID: 58614
Int'l Code: 2023-201A
Perigee: 498.5 km
Apogee: 500.0 km
Inclination: 97.6 °
Period: 94.5 minutes
Semi major axis: 6870 km
RCS: Unknown
Launch date: December 21, 2023
Source: Commonwealth of Independent States (former USSR) (CIS)
Launch site: PLESETSK MISSILE AND SPACE COMPLEX (PKMTR)
Your satellite tracking list
Your tracking list is empty




NASA's NSSDC Master Catalog

Two Line Element Set (TLE):
1 58614U 23201A   25142.55707174  .00004179  00000-0  17271-3 0  9994
2 58614  97.5874  81.0400 0001031 105.0777 255.0574 15.24561430 78960
Source of the keplerian elements: AFSPC